QPF
0.00 0.00 0.00 0.00 0.00 0.00 0.00 0.00 0.00 0.00 0.00 0.00 0.00 0.00 0.00 0.00 0.00 0.00 0.00 0.00 0.00 0.00 0.00 0.00 0.00 0.00 0.00 0.00 0.00 0.00 0.00 0.00 0.00 0.00 0.00 0.00 0.00 0.00 0.00 0.00 0.00 0.00 0.01 0.01
0.00 0.00 0.00 0.00 0.00 0.00 0.00 0.00 0.00 0.00 0.00 0.00 0.00 0.00 0.00 0.00 0.00 0.00 0.00 0.00 0.00 0.00 0.00 0.00 0.00 0.00 0.00 0.00 0.00 0.00 0.00 0.00 0.00 0.00 0.00 0.00 0.00 0.00 0.00 0.00 0.00 0.00 0.00 0.01
0.00 0.00 0.00 0.00 0.00 0.00 0.00 0.00 0.00 0.00 0.00 0.00 0.00 0.00 0.00 0.00 0.00 0.00 0.00 0.00 0.00 0.00 0.00 0.00 0.00 0.00 0.00 0.00 0.00 0.00 0.00 0.00 0.00 0.00 0.00 0.00 0.00 0.00 0.00 0.00 0.00 0.00 0.00 0.00
0.00 0.00 0.00 0.00 0.00 0.00 0.00 0.00 0.00 0.00 0.00 0.00 0.00 0.00 0.00 0.00 0.00 0.00 0.00 0.00 0.00 0.00 0.00 0.00 0.00 0.00 0.00 0.00 0.00 0.00 0.00 0.00 0.00 0.00 0.00 0.00 0.00 0.00 0.00 0.00 0.00 0.00 0.00 0.00
0.00 0.00 0.00 0.00 0.00 0.00 0.00 0.00 0.00 0.00 0.00 0.00 0.00 0.00 0.00 0.00 0.00 0.00 0.00 0.00 0.00 0.00 0.00 0.00 0.00 0.00 0.00 0.00 0.00 0.00 0.00 0.00 0.00 0.00 0.00 0.00 0.00 0.00 0.00 0.00 0.00 0.00 0.00 0.00
0.00 0.00 0.01 0.00 0.00 0.00 0.00 0.00 0.00 0.00 0.00 0.00 0.00 0.00 0.00 0.00 0.00 0.00 0.00 0.00 0.00 0.00 0.00 0.00 0.00 0.00 0.00 0.00 0.00 0.00 0.00 0.00 0.00 0.00 0.00 0.00 0.00 0.00 0.00 0.00 0.00 0.00 0.00 0.00
0.00 0.00 0.00 0.00 0.00 0.00 0.00 0.00 0.00 0.00 0.00 0.00 0.00 0.00 0.00 0.00 0.00 0.00 0.00 0.00 0.00 0.00 0.00 0.00 0.00 0.00 0.00 0.00 0.00 0.00 0.00 0.00 0.00 0.00 0.00 0.00 0.00 0.00 0.00 0.00 0.00 0.00 0.00 0.00
0.00 0.00 0.00 0.00 0.00 0.00 0.00 0.00 0.00 0.00 0.00 0.00 0.00 0.00 0.00 0.00 0.00 0.00 0.00 0.00 0.00 0.00 0.00 0.00 0.00 0.00 0.00 0.00 0.00 0.00 0.00 0.00 0.00 0.00 0.00 0.00 0.00 0.00 0.00 0.00 0.00 0.00 0.00 0.00
0.00 0.00 0.00 0.00 0.00 0.00 0.00 0.00 0.00 0.00 0.00 0.00 0.00 0.00 0.00 0.00 0.00 0.00 0.00 0.00 0.00 0.00 0.00 0.00 0.00 0.00 0.00 0.00 0.00 0.00 0.00 0.00 0.00 0.00 0.00 0.00 0.00 0.00 0.00 0.00 0.00 0.00 0.00 0.00
0.00 0.00 0.00 0.00 0.00 0.00 0.00 0.00 0.00 0.00 0.00 0.00 0.00 0.00 0.00 0.00 0.00 0.00 0.00 0.00 0.00 0.00 0.00 0.00 0.00 0.00 0.00 0.00 0.00 0.00 0.00 0.00 0.00 0.00 0.00 0.00 0.00 0.00 0.00 0.00 0.00 0.00 0.00 0.00
0.00 0.00 0.00 0.00 0.00 0.00 0.00 0.00 0.00 0.00 0.00 0.00 0.00 0.00 0.00 0.00 0.00 0.00 0.00 0.00 0.00 0.00 0.00 0.00 0.00 0.00 0.00 0.00 0.00 0.00 0.00 0.00 0.00 0.00 0.00 0.00 0.00 0.00 0.00 0.00 0.00 0.00 0.00 0.00
0.00 0.00 0.00 0.00 0.00 0.00 0.00 0.00 0.00 0.00 0.00 0.00 0.00 0.00 0.00 0.00 0.00 0.00 0.00 0.00 0.00 0.00 0.00 0.00 0.00 0.00 0.00 0.00 0.00 0.00 0.00 0.00 0.00 0.00 0.00 0.00 0.00 0.00 0.00 0.00 0.00 0.00 0.00 0.00
0.00 0.00 0.00 0.00 0.00 0.00 0.00 0.00 0.00 0.00 0.00 0.00 0.00 0.00 0.00 0.00 0.00 0.00 0.00 0.00 0.00 0.00 0.00 0.00 0.00 0.00 0.00 0.00 0.00 0.00 0.00 0.00 0.00 0.00 0.00 0.00 0.00 0.00 0.00 0.00 0.00 0.00 0.00 0.00
0.00 0.00 0.00 0.00 0.00 0.00 0.00 0.00 0.00 0.00 0.00 0.00 0.00 0.00 0.00 0.00 0.00 0.00 0.00 0.00 0.00 0.00 0.00 0.00 0.00 0.00 0.00 0.00 0.00 0.00 0.00 0.00 0.00 0.00 0.00 0.00 0.00 0.00 0.00 0.00 0.00 0.00 0.00 0.00
0.00 0.00 0.00 0.00 0.00 0.00 0.00 0.00 0.00 0.00 0.00 0.00 0.00 0.00 0.00 0.00 0.00 0.00 0.00 0.00 0.00 0.00 0.00 0.00 0.00 0.00 0.00 0.00 0.00 0.00 0.00 0.00 0.00 0.00 0.00 0.00 0.00 0.00 0.00 0.00 0.00 0.00 0.00 0.00
0.00 0.00 0.00 0.00 0.00 0.00 0.00 0.00 0.00 0.00 0.00 0.00 0.00 0.00 0.00 0.00 0.00 0.00 0.00 0.00 0.00 0.00 0.00 0.00 0.00 0.00 0.00 0.00 0.00 0.00 0.00 0.00 0.00 0.00 0.00 0.00 0.00 0.00 0.00 0.00 0.00 0.00 0.00 0.00
0.00 0.00 0.00 0.00 0.00 0.00 0.00 0.00 0.00 0.00 0.00 0.00 0.00 0.00 0.00 0.00 0.00 0.00 0.00 0.00 0.00 0.00 0.00 0.00 0.00 0.00 0.00 0.00 0.00 0.00 0.00 0.00 0.00 0.00 0.00 0.00 0.00 0.00 0.00 0.00 0.00 0.00 0.00 0.00
0.01 0.00 0.00 0.00 0.00 0.00 0.00 0.00 0.00 0.00 0.00 0.00 0.00 0.00 0.00 0.00 0.00 0.00 0.00 0.00 0.00 0.00 0.00 0.00 0.00 0.00 0.00 0.00 0.00 0.00 0.00 0.00 0.00 0.00 0.00 0.00 0.00 0.00 0.00 0.00 0.00 0.00 0.00 0.00
0.00 0.00 0.00 0.00 0.00 0.00 0.00 0.00 0.00 0.00 0.00 0.00 0.00 0.00 0.00 0.00 0.00 0.00 0.00 0.01 0.01 0.00 0.00 0.00 0.00 0.00 0.00 0.00 0.00 0.00 0.00 0.00 0.00 0.00 0.00 0.00 0.00 0.00 0.00 0.00 0.00 0.00 0.00 0.00
0.00 0.00 0.00 0.00 0.00 0.00 0.00 0.00 0.00 0.00 0.00 0.00 0.00 0.00 0.00 0.00 0.00 0.00 0.01 0.01 0.01 0.01 0.01 0.00 0.00 0.00 0.00 0.00 0.00 0.00 0.00 0.00 0.00 0.01 0.00 0.00 0.00 0.00 0.00 0.00 0.00 0.00 0.00 0.00
0.01 0.00 0.00 0.00 0.00 0.00 0.00 0.00 0.00 0.00 0.00 0.00 0.00 0.00 0.00 0.00 0.00 0.00 0.01 0.01 0.01 0.02 0.01 0.01 0.01 0.00 0.00 0.00 0.00 0.00 0.00 0.00 0.00 0.00 0.00 0.00 0.00 0.00 0.00 0.00 0.00 0.00 0.00 0.00
0.01 0.01 0.00 0.00 0.00 0.00 0.00 0.00 0.00 0.00 0.00 0.00 0.01 0.01 0.01 0.01 0.01 0.01 0.01 0.01 0.02 0.02 0.02 0.02 0.02 0.01 0.01 0.01 0.01 0.00 0.00 0.00 0.01 0.00 0.00 0.00 0.00 0.00 0.00 0.00 0.00 0.00 0.00 0.00
0.01 0.01 0.00 0.00 0.00 0.00 0.00 0.00 0.00 0.00 0.01 0.01 0.01 0.01 0.01 0.02 0.02 0.02 0.01 0.01 0.02 0.03 0.03 0.03 0.03 0.03 0.03 0.02 0.02 0.02 0.01 0.01 0.01 0.00 0.00 0.00 0.00 0.00 0.00 0.00 0.00 0.00 0.00 0.00
0.01 0.01 0.01 0.01 0.01 0.01 0.00 0.00 0.00 0.01 0.01 0.01 0.01 0.01 0.02 0.02 0.02 0.03 0.03 0.03 0.03 0.04 0.04 0.05 0.05 0.05 0.04 0.04 0.04 0.04 0.04 0.03 0.02 0.01 0.00 0.00 0.00 0.00 0.00 0.00 0.00 0.00 0.00 0.00
0.00 0.01 0.01 0.01 0.01 0.01 0.01 0.00 0.00 0.00 0.01 0.01 0.02 0.02 0.03 0.03 0.03 0.04 0.04 0.04 0.05 0.06 0.07 0.07 0.07 0.07 0.06 0.06 0.05 0.05 0.05 0.05 0.05 0.04 0.02 0.01 0.01 0.01 0.01 0.00 0.00 0.00 0.00 0.00
0.00 0.00 0.01 0.02 0.02 0.02 0.02 0.01 0.01 0.01 0.01 0.01 0.01 0.02 0.03 0.04 0.04 0.04 0.04 0.05 0.06 0.07 0.07 0.07 0.07 0.07 0.07 0.07 0.07 0.07 0.06 0.05 0.04 0.04 0.03 0.03 0.02 0.01 0.01 0.01 0.01 0.00 0.00 0.00
0.00 0.00 0.01 0.01 0.02 0.02 0.02 0.02 0.02 0.01 0.01 0.01 0.01 0.02 0.03 0.04 0.05 0.05 0.05 0.05 0.05 0.07 0.08 0.09 0.09 0.08 0.07 0.06 0.06 0.06 0.06 0.05 0.04 0.03 0.03 0.02 0.02 0.01 0.01 0.01 0.00 0.00 0.00 0.00
MSLP
1009.81 1009.78 1009.71 1009.63 1009.52 1009.37 1009.16 1008.87 1008.47 1007.95 1007.33 1006.62 1005.87 1005.12 1004.44 1003.88 1003.48 1003.26 1003.21 1003.34 1003.60 1003.95 1004.37 1004.80 1005.24 1005.66 1006.08 1006.48 1006.88 1007.29 1007.72 1008.14 1008.57 1008.97 1009.35 1009.68 1009.96 1010.20 1010.40 1010.57 1010.72 1010.87 1011.02 1011.18
1009.84 1009.70 1009.49 1009.22 1008.91 1008.56 1008.18 1007.77 1007.31 1006.80 1006.25 1005.66 1005.05 1004.45 1003.89 1003.40 1003.02 1002.75 1002.61 1002.60 1002.71 1002.93 1003.23 1003.61 1004.03 1004.50 1005.00 1005.52 1006.05 1006.59 1007.12 1007.63 1008.11 1008.54 1008.92 1009.25 1009.52 1009.76 1009.96 1010.15 1010.34 1010.54 1010.74 1010.94
1009.69 1009.47 1009.15 1008.74 1008.28 1007.78 1007.27 1006.76 1006.26 1005.77 1005.28 1004.80 1004.32 1003.84 1003.38 1002.95 1002.57 1002.24 1002.01 1001.87 1001.84 1001.92 1002.12 1002.43 1002.84 1003.34 1003.91 1004.54 1005.19 1005.84 1006.46 1007.05 1007.57 1008.02 1008.40 1008.72 1008.98 1009.20 1009.41 1009.62 1009.84 1010.07 1010.32 1010.57
1009.44 1009.16 1008.75 1008.24 1007.67 1007.06 1006.47 1005.90 1005.38 1004.91 1004.48 1004.09 1003.71 1003.33 1002.94 1002.55 1002.16 1001.79 1001.47 1001.21 1001.05 1001.02 1001.12 1001.37 1001.76 1002.28 1002.91 1003.61 1004.34 1005.08 1005.78 1006.41 1006.96 1007.42 1007.79 1008.10 1008.34 1008.56 1008.77 1009.00 1009.24 1009.51 1009.79 1010.07
1009.15 1008.80 1008.33 1007.76 1007.12 1006.46 1005.81 1005.22 1004.70 1004.25 1003.87 1003.55 1003.24 1002.94 1002.61 1002.25 1001.85 1001.45 1001.05 1000.70 1000.44 1000.31 1000.33 1000.51 1000.87 1001.39 1002.04 1002.78 1003.56 1004.35 1005.08 1005.74 1006.31 1006.77 1007.14 1007.44 1007.68 1007.90 1008.12 1008.36 1008.63 1008.92 1009.22 1009.53
1008.90 1008.49 1007.96 1007.35 1006.67 1005.98 1005.32 1004.73 1004.22 1003.80 1003.47 1003.19 1002.94 1002.69 1002.40 1002.06 1001.67 1001.24 1000.79 1000.38 1000.04 999.83 999.78 999.90 1000.22 1000.70 1001.34 1002.07 1002.86 1003.65 1004.40 1005.07 1005.64 1006.11 1006.49 1006.80 1007.06 1007.30 1007.54 1007.80 1008.09 1008.40 1008.72 1009.04
1008.74 1008.26 1007.68 1007.04 1006.35 1005.67 1005.02 1004.44 1003.96 1003.57 1003.27 1003.03 1002.83 1002.61 1002.35 1002.02 1001.64 1001.19 1000.72 1000.26 999.87 999.59 999.47 999.52 999.77 1000.20 1000.78 1001.47 1002.23 1003.00 1003.73 1004.40 1004.99 1005.48 1005.89 1006.24 1006.54 1006.82 1007.11 1007.41 1007.73 1008.06 1008.39 1008.70
1008.68 1008.13 1007.52 1006.87 1006.19 1005.53 1004.92 1004.38 1003.93 1003.58 1003.31 1003.09 1002.91 1002.71 1002.46 1002.15 1001.76 1001.31 1000.82 1000.32 999.88 999.54 999.34 999.32 999.48 999.82 1000.31 1000.93 1001.63 1002.36 1003.07 1003.75 1004.36 1004.89 1005.37 1005.78 1006.16 1006.52 1006.88 1007.23 1007.59 1007.94 1008.28 1008.58
1008.70 1008.10 1007.47 1006.84 1006.20 1005.60 1005.04 1004.55 1004.15 1003.83 1003.58 1003.38 1003.20 1003.01 1002.76 1002.44 1002.04 1001.57 1001.05 1000.53 1000.03 999.62 999.34 999.21 999.26 999.49 999.87 1000.40 1001.02 1001.70 1002.40 1003.08 1003.73 1004.34 1004.91 1005.43 1005.92 1006.38 1006.83 1007.26 1007.67 1008.05 1008.39 1008.68
1008.75 1008.13 1007.53 1006.94 1006.38 1005.85 1005.38 1004.96 1004.61 1004.32 1004.10 1003.90 1003.71 1003.49 1003.22 1002.88 1002.45 1001.95 1001.39 1000.80 1000.24 999.74 999.36 999.11 999.03 999.13 999.39 999.81 1000.35 1000.98 1001.67 1002.38 1003.10 1003.81 1004.49 1005.14 1005.77 1006.36 1006.91 1007.43 1007.90 1008.31 1008.66 1008.95
1008.76 1008.19 1007.66 1007.16 1006.71 1006.29 1005.91 1005.57 1005.28 1005.03 1004.81 1004.60 1004.38 1004.12 1003.81 1003.41 1002.93 1002.37 1001.75 1001.09 1000.44 999.84 999.33 998.95 998.73 998.69 998.83 999.14 999.60 1000.19 1000.88 1001.63 1002.43 1003.25 1004.07 1004.86 1005.63 1006.35 1007.03 1007.63 1008.16 1008.62 1008.99 1009.27
1008.72 1008.25 1007.85 1007.48 1007.16 1006.87 1006.59 1006.34 1006.10 1005.87 1005.65 1005.42 1005.15 1004.84 1004.46 1003.99 1003.44 1002.80 1002.09 1001.34 1000.58 999.86 999.22 998.70 998.34 998.15 998.16 998.37 998.76 999.32 1000.01 1000.82 1001.70 1002.63 1003.58 1004.52 1005.43 1006.28 1007.06 1007.75 1008.34 1008.84 1009.23 1009.53
1008.65 1008.33 1008.08 1007.87 1007.69 1007.52 1007.35 1007.16 1006.97 1006.75 1006.52 1006.24 1005.92 1005.54 1005.08 1004.54 1003.90 1003.17 1002.37 1001.52 1000.65 999.80 999.03 998.37 997.87 997.55 997.44 997.55 997.88 998.40 999.10 999.95 1000.91 1001.94 1003.00 1004.06 1005.09 1006.04 1006.91 1007.68 1008.34 1008.87 1009.30 1009.62
1008.59 1008.45 1008.36 1008.30 1008.25 1008.18 1008.08 1007.94 1007.77 1007.55 1007.28 1006.96 1006.58 1006.13 1005.60 1004.98 1004.26 1003.45 1002.57 1001.62 1000.64 999.69 998.80 998.01 997.38 996.94 996.72 996.75 997.01 997.50 998.19 999.06 1000.07 1001.17 1002.32 1003.46 1004.57 1005.61 1006.55 1007.38 1008.08 1008.66 1009.13 1009.49
1008.63 1008.65 1008.70 1008.75 1008.78 1008.77 1008.70 1008.58 1008.39 1008.14 1007.84 1007.47 1007.04 1006.53 1005.95 1005.27 1004.50 1003.63 1002.67 1001.66 1000.60 999.56 998.57 997.68 996.94 996.40 996.08 996.02 996.22 996.66 997.33 998.20 999.23 1000.35 1001.54 1002.74 1003.90 1004.98 1005.97 1006.84 1007.59 1008.21 1008.72 1009.14
1008.83 1008.95 1009.08 1009.18 1009.23 1009.22 1009.13 1008.97 1008.74 1008.45 1008.09 1007.69 1007.22 1006.68 1006.07 1005.37 1004.58 1003.69 1002.71 1001.65 1000.56 999.46 998.40 997.44 996.62 995.99 995.59 995.45 995.57 995.96 996.58 997.41 998.42 999.54 1000.72 1001.92 1003.10 1004.20 1005.21 1006.12 1006.90 1007.57 1008.14 1008.62
1009.20 1009.36 1009.48 1009.56 1009.55 1009.47 1009.30 1009.06 1008.76 1008.41 1008.01 1007.57 1007.09 1006.56 1005.96 1005.28 1004.51 1003.64 1002.68 1001.64 1000.54 999.42 998.34 997.33 996.46 995.76 995.29 995.07 995.12 995.43 995.98 996.75 997.69 998.76 999.91 1001.08 1002.24 1003.34 1004.36 1005.29 1006.11 1006.83 1007.46 1008.01
1009.70 1009.81 1009.85 1009.82 1009.69 1009.48 1009.19 1008.84 1008.45 1008.03 1007.60 1007.15 1006.68 1006.18 1005.63 1005.01 1004.30 1003.50 1002.60 1001.61 1000.55 999.46 998.38 997.36 996.46 995.72 995.19 994.90 994.87 995.09 995.56 996.24 997.09 998.08 999.16 1000.28 1001.40 1002.48 1003.50 1004.45 1005.31 1006.08 1006.78 1007.41
1010.23 1010.22 1010.11 1009.91 1009.61 1009.24 1008.80 1008.33 1007.84 1007.36 1006.90 1006.46 1006.03 1005.59 1005.12 1004.59 1003.99 1003.28 1002.48 1001.57 1000.58 999.55 998.51 997.51 996.61 995.85 995.28 994.94 994.83 994.97 995.34 995.91 996.67 997.56 998.55 999.60 1000.66 1001.71 1002.73 1003.69 1004.58 1005.41 1006.18 1006.89
1010.66 1010.48 1010.19 1009.79 1009.31 1008.76 1008.17 1007.58 1007.02 1006.50 1006.03 1005.61 1005.23 1004.87 1004.50 1004.08 1003.58 1003.00 1002.30 1001.50 1000.61 999.66 998.68 997.73 996.86 996.12 995.53 995.15 994.99 995.04 995.32 995.80 996.44 997.23 998.13 999.09 1000.09 1001.10 1002.10 1003.07 1003.99 1004.88 1005.71 1006.48
1010.85 1010.49 1010.02 1009.45 1008.80 1008.10 1007.39 1006.72 1006.09 1005.55 1005.09 1004.71 1004.39 1004.11 1003.83 1003.51 1003.13 1002.65 1002.07 1001.38 1000.59 999.74 998.85 997.98 997.17 996.46 995.89 995.50 995.31 995.31 995.51 995.89 996.44 997.13 997.92 998.80 999.73 1000.70 1001.67 1002.63 1003.58 1004.50 1005.37 1006.20
1010.72 1010.22 1009.60 1008.90 1008.12 1007.33 1006.55 1005.83 1005.19 1004.64 1004.21 1003.86 1003.60 1003.39 1003.18 1002.94 1002.64 1002.26 1001.78 1001.19 1000.51 999.77 998.99 998.22 997.49 996.86 996.34 995.98 995.78 995.76 995.91 996.22 996.68 997.27 997.98 998.76 999.62 1000.52 1001.45 1002.40 1003.34 1004.27 1005.17 1006.03
1010.26 1009.67 1008.97 1008.19 1007.37 1006.54 1005.75 1005.02 1004.39 1003.88 1003.47 1003.16 1002.94 1002.76 1002.60 1002.41 1002.17 1001.85 1001.44 1000.95 1000.37 999.74 999.08 998.43 997.82 997.29 996.86 996.55 996.39 996.38 996.50 996.77 997.17 997.67 998.29 998.98 999.75 1000.58 1001.46 1002.36 1003.28 1004.19 1005.09 1005.96
1009.51 1008.90 1008.19 1007.42 1006.62 1005.82 1005.06 1004.38 1003.80 1003.32 1002.94 1002.66 1002.45 1002.29 1002.13 1001.95 1001.73 1001.45 1001.10 1000.67 1000.19 999.67 999.14 998.62 998.15 997.75 997.43 997.23 997.13 997.15 997.29 997.53 997.87 998.31 998.83 999.44 1000.12 1000.86 1001.65 1002.49 1003.36 1004.24 1005.11 1005.96
1008.59 1008.01 1007.36 1006.66 1005.94 1005.23 1004.55 1003.95 1003.42 1002.99 1002.65 1002.37 1002.16 1001.98 1001.80 1001.61 1001.37 1001.10 1000.77 1000.41 1000.01 999.59 999.19 998.82 998.50 998.25 998.07 997.97 997.97 998.05 998.20 998.44 998.75 999.12 999.57 1000.08 1000.66 1001.30 1002.00 1002.75 1003.55 1004.37 1005.20 1006.01
1007.62 1007.13 1006.58 1005.99 1005.39 1004.79 1004.23 1003.72 1003.27 1002.88 1002.56 1002.28 1002.05 1001.83 1001.61 1001.37 1001.11 1000.82 1000.51 1000.19 999.87 999.56 999.28 999.05 998.88 998.78 998.74 998.77 998.86 999.00 999.19 999.43 999.71 1000.03 1000.40 1000.82 1001.30 1001.84 1002.44 1003.10 1003.81 1004.56 1005.32 1006.09
1006.71 1006.33 1005.90 1005.44 1004.97 1004.50 1004.05 1003.64 1003.26 1002.92 1002.61 1002.33 1002.06 1001.80 1001.53 1001.25 1000.95 1000.65 1000.35 1000.06 999.80 999.58 999.42 999.32 999.29 999.32 999.41 999.55 999.72 999.93 1000.15 1000.39 1000.64 1000.92 1001.22 1001.55 1001.94 1002.38 1002.89 1003.46 1004.08 1004.76 1005.47 1006.19
Thickness
5744 5750 5750 5746 5744 5744 5738 5735 5725 5732 5738 5749 5757 5761 5765 5767 5767 5765 5763 5760 5757 5752 5750 5747 5744 5741 5739 5735 5732 5728 5722 5716 5713 5711 5707 5703 5699 5695 5692 5689 5687 5684 5681 5679
5738 5747 5748 5743 5747 5746 5744 5743 5740 5740 5742 5760 5766 5767 5766 5765 5764 5762 5761 5761 5759 5756 5752 5749 5746 5743 5740 5736 5733 5729 5723 5718 5715 5711 5707 5703 5699 5696 5692 5689 5686 5684 5681 5678
5723 5737 5737 5730 5746 5747 5745 5749 5745 5735 5745 5759 5759 5760 5761 5763 5762 5761 5761 5761 5761 5759 5756 5753 5750 5747 5741 5738 5734 5729 5724 5720 5715 5711 5707 5703 5700 5696 5692 5689 5686 5683 5681 5678
5720 5721 5706 5737 5762 5757 5748 5749 5752 5750 5752 5756 5758 5762 5765 5765 5762 5761 5762 5762 5762 5761 5759 5757 5755 5750 5745 5740 5735 5729 5725 5720 5716 5712 5707 5704 5700 5696 5693 5690 5687 5684 5681 5679
5713 5706 5716 5739 5751 5751 5740 5736 5747 5745 5747 5751 5758 5758 5757 5763 5763 5762 5762 5763 5763 5764 5762 5759 5755 5752 5745 5739 5734 5729 5724 5720 5717 5713 5707 5703 5699 5696 5693 5690 5687 5684 5682 5680
5710 5698 5697 5724 5745 5753 5741 5721 5737 5740 5738 5741 5743 5729 5737 5755 5759 5760 5761 5761 5761 5762 5761 5757 5755 5751 5744 5738 5733 5728 5725 5722 5718 5714 5708 5703 5700 5697 5694 5690 5687 5685 5682 5680
5704 5699 5710 5728 5738 5739 5709 5704 5727 5730 5729 5729 5726 5727 5738 5748 5751 5753 5755 5756 5756 5756 5753 5753 5752 5748 5740 5736 5733 5730 5726 5722 5717 5713 5708 5704 5700 5697 5693 5690 5686 5683 5681 5679
5703 5693 5696 5723 5722 5710 5706 5719 5720 5719 5720 5720 5722 5727 5732 5737 5740 5743 5745 5747 5748 5746 5746 5747 5747 5742 5736 5733 5733 5730 5724 5719 5714 5711 5707 5704 5698 5694 5691 5688 5683 5680 5678 5676
5701 5699 5711 5716 5710 5710 5711 5707 5708 5707 5709 5711 5712 5716 5720 5724 5729 5733 5735 5737 5739 5738 5738 5740 5741 5738 5732 5731 5730 5725 5719 5714 5710 5707 5704 5700 5695 5691 5687 5684 5680 5678 5675 5672
5693 5699 5702 5703 5703 5701 5699 5696 5697 5699 5699 5700 5700 5704 5708 5713 5718 5722 5725 5728 5729 5729 5728 5730 5733 5732 5730 5729 5725 5720 5714 5710 5706 5703 5699 5696 5691 5688 5683 5679 5676 5674 5671 5668
5677 5683 5685 5686 5685 5684 5684 5685 5686 5686 5687 5688 5689 5691 5695 5700 5705 5710 5714 5718 5720 5720 5720 5722 5725 5725 5725 5724 5720 5714 5710 5706 5702 5699 5695 5689 5683 5678 5676 5671 5671 5668 5666 5663
5657 5664 5661 5663 5668 5668 5666 5666 5668 5669 5672 5675 5676 5678 5682 5687 5692 5697 5702 5707 5709 5711 5712 5715 5717 5718 5719 5718 5715 5710 5705 5702 5698 5693 5689 5683 5675 5667 5663 5663 5662 5661 5659 5655
5650 5650 5648 5649 5650 5650 5648 5650 5651 5652 5654 5657 5662 5664 5667 5672 5678 5683 5689 5694 5698 5701 5704 5707 5709 5710 5712 5712 5710 5706 5702 5698 5694 5689 5684 5678 5672 5665 5657 5651 5650 5650 5648 5646
5636 5633 5630 5630 5629 5631 5631 5632 5634 5636 5639 5641 5645 5648 5652 5656 5662 5667 5673 5680 5686 5691 5695 5698 5700 5703 5706 5705 5703 5700 5697 5694 5690 5685 5680 5675 5670 5664 5658 5651 5645 5639 5637 5636
5618 5615 5612 5613 5613 5613 5613 5614 5614 5616 5619 5623 5626 5630 5634 5638 5644 5651 5659 5667 5673 5679 5684 5688 5690 5694 5698 5697 5695 5693 5690 5687 5684 5680 5675 5671 5666 5661 5656 5651 5644 5636 5630 5626
5599 5597 5595 5594 5593 5594 5594 5594 5595 5598 5601 5605 5608 5612 5617 5623 5629 5637 5645 5652 5656 5663 5670 5675 5680 5684 5687 5686 5684 5683 5681 5680 5676 5672 5668 5664 5660 5655 5651 5646 5640 5633 5627 5622
5577 5575 5574 5573 5574 5575 5576 5577 5579 5582 5585 5588 5593 5598 5603 5608 5615 5621 5629 5637 5644 5651 5659 5664 5668 5672 5674 5675 5673 5672 5671 5669 5667 5664 5660 5657 5653 5649 5645 5640 5635 5630 5624 5618
5562 5560 5558 5557 5557 5558 5560 5563 5565 5567 5570 5575 5579 5584 5588 5593 5598 5606 5614 5622 5630 5638 5646 5652 5656 5659 5661 5663 5662 5662 5661 5659 5657 5654 5652 5649 5645 5642 5638 5633 5628 5622 5615 5610
5549 5547 5545 5544 5544 5545 5547 5549 5552 5555 5558 5561 5565 5568 5573 5578 5584 5591 5600 5607 5614 5622 5631 5638 5642 5645 5647 5649 5649 5649 5650 5648 5646 5644 5642 5639 5635 5632 5629 5625 5620 5614 5608 5603
5536 5534 5533 5533 5533 5534 5536 5539 5541 5544 5547 5549 5552 5554 5559 5564 5570 5577 5584 5592 5601 5609 5617 5623 5627 5631 5634 5636 5636 5637 5638 5637 5635 5633 5631 5628 5626 5623 5620 5616 5611 5606 5600 5595
5524 5522 5520 5520 5522 5523 5525 5527 5530 5532 5535 5537 5539 5542 5546 5551 5557 5563 5570 5578 5589 5596 5603 5608 5613 5617 5621 5623 5623 5624 5625 5625 5625 5623 5621 5618 5616 5613 5610 5606 5602 5597 5592 5587
5513 5512 5510 5510 5511 5513 5515 5517 5519 5522 5524 5526 5528 5531 5533 5537 5543 5549 5557 5564 5574 5582 5588 5594 5599 5603 5606 5608 5609 5611 5613 5613 5613 5612 5610 5608 5606 5603 5600 5596 5592 5588 5583 5578
5502 5501 5500 5499 5500 5502 5504 5506 5508 5510 5512 5515 5516 5518 5520 5524 5529 5535 5543 5552 5558 5565 5571 5578 5583 5588 5591 5592 5595 5597 5598 5599 5600 5600 5599 5598 5596 5593 5590 5586 5582 5577 5572 5567
5491 5490 5490 5489 5490 5491 5493 5495 5498 5500 5502 5504 5506 5507 5509 5512 5518 5523 5529 5536 5543 5549 5555 5562 5567 5572 5574 5576 5579 5582 5584 5585 5586 5587 5586 5585 5583 5581 5578 5575 5571 5566 5561 5556
5480 5480 5480 5479 5479 5481 5482 5484 5487 5489 5491 5493 5495 5496 5498 5501 5504 5510 5516 5522 5528 5534 5540 5546 5552 5556 5559 5562 5565 5567 5569 5571 5572 5572 5571 5570 5569 5567 5565 5562 5559 5554 5550 5545
5470 5470 5470 5470 5470 5471 5473 5474 5476 5478 5480 5482 5484 5486 5488 5491 5494 5499 5504 5509 5515 5520 5525 5530 5535 5540 5544 5547 5550 5553 5554 5556 5556 5556 5556 5556 5555 5553 5551 5549 5546 5542 5538 5533
5462 5462 5462 5462 5463 5463 5464 5465 5466 5468 5471 5472 5474 5476 5478 5481 5484 5488 5493 5497 5502 5507 5512 5517 5522 5525 5529 5533 5536 5538 5540 5540 5541 5541 5541 5541 5540 5539 5537 5535 5532 5528 5525 5520